1528945200.1,58439,19.25,73384.0,2.73,2.13,2.05,0,*7F
1528945201.36,58440,19.25,73386.8,2.73,2.13,2.13,0,*76
1528945202.6,58441,19.25,73390.3,2.71,2.17,2.13,0,*71
1528945203.86,58442,19.25,73390.3,2.73,2.13,2.17,0,*70
1528945205.09,58443,19.25,73400.3,2.71,2.05,2.13,0,*70
1528945206.33,58444,19.25,73398.0,2.71,2.17,2.05,0,*73
1528945207.57,58445,19.25,73390.3,2.71,2.17,2.13,0,*75
1528945208.8,58446,19.25,73390.5,2.71,2.13,2.17,0,*76
1528945210.06,58447,19.25,73390.3,2.73,2.13,2.13,0,*71
1528945211.29,58448,19.25,73398.3,2.71,2.13,2.17,0,*78
1528945212.53,58449,19.19,73396.8,2.71,2.13,2.13,0,*7D
1528945213.79,58450,19.25,73396.5,2.73,2.13,2.17,0,*73
1528945215.03,58451,19.25,73394.8,2.71,2.17,2.17,0,*74
1528945216.3,58452,19.25,73396.3,2.73,2.17,2.17,0,*75
1528945217.53,58453,19.25,73396.5,2.71,2.17,2.17,0,*76
1528945218.8,58454,19.25,73402.5,2.73,2.25,2.17,0,*72
1528945220.03,58455,19.25,73398.5,2.71,2.17,2.17,0,*70
1528945221.27,58456,19.25,73402.0,2.71,2.13,2.17,0,*77
1528945222.53,58457,19.25,73404.3,2.73,2.13,2.13,0,*70
1528945223.77,58458,19.25,73396.5,2.71,2.17,2.13,0,*79
1528945225.0,58459,19.25,73402.0,2.71,2.13,2.13,0,*7C
1528945226.26,58460,19.25,73394.5,2.73,2.13,2.05,0,*73
1528945227.49,58461,19.25,73388.3,2.71,2.05,2.13,0,*70
1528945228.72,58462,19.25,73396.5,2.71,2.13,2.13,0,*74
1528945229.95,58463,19.25,73384.5,2.71,2.13,2.05,0,*72
1528945231.21,58464,19.25,73382.5,2.73,2.05,2.05,0,*70
1528945232.44,58465,19.25,73372.0,2.71,2.13,2.05,0,*74
1528945233.7,58466,19.25,73402.0,2.73,2.05,2.01,0,*76
1528945234.93,58467,19.25,73392.8,2.71,2.01,2.13,0,*72
1528945236.16,58468,19.25,73402.8,2.71,2.01,2.05,0,*7A
1528945237.39,58469,19.25,73412.5,2.71,2.05,2.05,0,*7F
1528945238.64,58470,19.25,73412.0,2.73,2.05,2.01,0,*71
1528945239.9,58471,19.25,73404.3,2.73,2.05,2.05,0,*74
1528945241.13,58472,19.25,73406.3,2.71,2.01,2.05,0,*71
1528945242.36,58473,19.25,73406.3,2.71,2.13,2.05,0,*73
1528945243.62,58474,19.25,73404.3,2.73,2.13,2.17,0,*75
1528945244.86,58475,19.25,73400.3,2.71,2.13,2.13,0,*72
1528945246.09,58476,19.25,73400.8,2.71,2.17,2.17,0,*71
1528945247.33,58477,19.25,73400.0,2.71,2.13,2.13,0,*70
1528945248.59,58478,19.19,73402.8,2.73,2.13,2.13,0,*7D
1528945249.82,58479,19.25,73404.8,2.71,2.13,2.05,0,*79
1528945251.09,58480,19.25,73412.5,2.73,2.17,2.17,0,*7A
1528945252.35,58481,19.25,73410.5,2.73,2.17,2.17,0,*7B
1528945253.59,58482,19.25,73410.5,2.71,2.13,2.13,0,*7A
1528945254.86,58483,19.25,73410.0,2.73,2.17,2.13,0,*7D
1528945256.09,58484,19.25,73404.3,2.71,2.17,2.17,0,*7C
1528945257.33,58485,19.25,73406.5,2.71,2.17,2.17,0,*7D
1528945258.57,58486,19.25,73408.8,2.71,2.17,2.17,0,*7E
1528945259.81,58487,19.19,73406.0,2.71,2.17,2.17,0,*7F
1528945261.04,58488,19.19,73398.8,2.71,2.13,2.17,0,*74
1528945262.27,58489,19.25,73402.0,2.71,2.25,2.25,0,*71
1528945263.54,58490,19.19,73400.0,2.73,2.17,2.13,0,*7F
1528945264.8,58491,19.25,73408.0,2.73,2.17,2.25,0,*7B
1528945266.04,58492,19.19,73402.0,2.71,2.17,2.17,0,*7B
1528945267.31,58493,19.25,73398.5,2.73,2.17,2.13,0,*7C
1528945268.57,58494,19.25,73394.8,2.73,2.13,2.05,0,*78
1528945269.8,58495,19.25,73396.5,2.71,2.13,2.13,0,*7C
1528945271.07,58496,19.25,73412.5,2.73,2.17,2.25,0,*7C
1528945272.32,58497,19.25,73406.0,2.73,2.25,2.25,0,*7C
1528945273.59,58498,19.25,73400.3,2.73,2.13,2.13,0,*73
1528945274.86,58499,19.25,73394.8,2.73,2.17,2.13,0,*76
1528945276.12,58500,19.25,73398.5,2.73,2.17,2.13,0,*77
1528945277.38,58501,19.25,73404.3,2.73,2.01,2.01,0,*72
1528945278.61,58502,19.25,73408.3,2.71,2.05,2.13,0,*74
1528945279.85,58503,19.25,73398.3,2.71,2.05,2.13,0,*75
1528945281.1,58504,19.19,73394.3,2.73,2.01,2.01,0,*77
1528945282.36,58505,19.25,73400.8,2.73,2.01,2.05,0,*72
1528945283.59,58506,19.25,73406.8,2.71,2.13,2.05,0,*70
1528945284.85,58507,19.25,73406.0,2.73,2.13,2.13,0,*74
1528945286.08,58508,19.25,73400.5,2.71,2.05,2.05,0,*79
1528945287.31,58509,19.25,73396.0,2.71,2.13,2.05,0,*7F
1528945288.57,58510,19.25,73402.5,2.73,2.13,2.05,0,*75
1528945289.8,58511,19.19,73400.0,2.71,2.13,2.13,0,*71
1528945291.03,58512,19.25,73398.8,2.71,2.05,2.01,0,*76
1528945292.26,58513,19.19,73402.8,2.71,2.05,2.01,0,*77
1528945293.49,58514,19.25,73410.8,2.71,2.01,2.05,0,*70
1528945294.74,58515,19.25,73408.3,2.73,2.05,2.05,0,*77
1528945295.97,58516,19.19,73404.5,2.71,2.01,2.05,0,*72
1528945297.23,58517,19.25,73408.5,2.73,2.01,2.05,0,*71
1528945298.46,58518,19.25,73400.3,2.71,2.01,2.01,0,*78
1528945299.68,58519,19.19,73396.0,2.71,1.89,1.97,0,*76
1528945300.94,58520,19.25,73398.8,2.69,1.97,1.97,0,*7A
1528945302.17,58521,19.25,73402.3,2.71,2.05,2.05,0,*72
1528945303.42,58522,19.25,73400.8,2.73,2.05,2.05,0,*73
1528945304.65,58523,19.25,73404.8,2.71,2.01,2.05,0,*74
1528945305.91,58524,19.25,73398.3,2.73,2.05,2.01,0,*71
1528945307.14,58525,19.25,73396.5,2.71,2.01,2.01,0,*76
1528945308.37,58526,19.25,73400.0,2.71,2.01,2.05,0,*71
1528945309.62,58527,19.25,73400.0,2.69,2.01,2.01,0,*7D
1528945310.88,58528,19.19,73396.8,2.69,2.01,2.01,0,*72
1528945312.11,58529,19.25,73396.5,2.71,2.05,2.05,0,*7A
1528945313.34,58530,19.19,73396.0,2.71,2.05,2.13,0,*75
1528945314.57,58531,19.25,73402.3,2.71,2.05,2.01,0,*77
1528945315.8,58532,19.25,73406.0,2.71,2.05,2.01,0,*74
1528945317.05,58533,19.19,73406.8,2.69,2.01,1.97,0,*74
1528945318.3,58534,19.25,73406.8,2.69,2.01,1.97,0,*73
1528945319.55,58535,19.25,73404.3,2.69,2.01,1.97,0,*72
1528945320.81,58536,19.19,73404.3,2.69,1.97,2.01,0,*71
1528945322.06,58537,19.25,73408.0,2.69,1.97,1.97,0,*7C
1528945323.32,58538,19.25,73408.3,2.69,1.97,1.97,0,*73
1528945324.57,58539,19.25,73412.8,2.69,1.97,1.97,0,*72
1528945325.83,58540,19.25,73414.0,2.67,1.97,2.01,0,*7E
1528945327.06,58541,19.25,73416.8,2.71,2.01,2.13,0,*77
1528945328.32,58542,19.25,73418.8,2.69,2.09,2.13,0,*75
1528945329.58,58543,19.25,73414.3,2.69,2.13,2.13,0,*7F
1528945330.84,58544,19.25,73416.3,2.69,2.13,2.13,0,*78
1528945332.09,58545,19.19,73416.8,2.69,2.09,2.09,0,*79
1528945333.35,58546,19.25,73416.3,2.69,2.13,2.09,0,*71
1528945334.6,58547,19.19,73412.0,2.69,2.13,2.09,0,*70
1528945335.84,58548,19.19,73414.5,2.71,2.25,2.17,0,*7C
1528945337.07,58549,19.19,73412.0,2.71,2.25,2.17,0,*7D
1528945338.31,58550,19.25,73412.0,2.71,2.17,2.17,0,*74
1528945339.54,58551,19.19,73410.8,2.71,2.25,2.17,0,*74
1528945340.8,58552,19.25,73412.0,2.69,2.13,2.13,0,*7F
1528945342.05,58553,19.19,73414.3,2.69,2.09,2.09,0,*7E
1528945343.28,58554,19.19,73412.8,2.71,2.05,2.05,0,*70
1528945344.52,58555,19.25,73410.8,2.71,2.17,2.17,0,*71
1528945345.75,58556,19.25,73412.5,2.71,2.25,2.25,0,*72
1528945346.99,58557,19.19,73414.3,2.71,2.17,2.17,0,*73
1528945348.25,58558,19.19,73412.8,2.73,2.17,2.25,0,*7F
1528945349.46,58559,19.19,73410.3,2.71,2.27,2.17,0,*7E
1528945350.72,58560,19.19,73414.3,2.73,2.25,2.17,0,*74
1528945351.95,58561,19.25,73416.3,2.71,2.25,2.25,0,*76
1528945353.18,58562,19.25,73420.5,2.71,2.25,2.25,0,*75
1528945354.44,58563,19.19,73416.5,2.73,2.25,2.17,0,*77
1528945355.67,58564,19.25,73410.5,2.71,2.13,2.17,0,*77
1528945356.93,58565,19.19,73396.3,2.73,2.05,2.13,0,*77
1528945358.17,58566,19.19,73398.8,2.71,2.17,2.13,0,*75
1528945359.4,58567,19.25,73402.5,2.71,2.13,2.25,0,*75
1528945360.64,58568,19.25,73400.0,2.71,2.17,2.17,0,*7F
1528945361.87,58569,19.25,73400.8,2.71,2.13,2.17,0,*7A
1528945363.11,58570,19.25,73402.5,2.71,2.13,2.17,0,*72
1528945364.36,58571,19.25,73406.3,2.73,2.01,2.05,0,*71
1528945365.63,58572,19.25,73406.0,2.73,2.17,2.13,0,*72
1528945366.9,58573,19.25,73398.3,2.73,2.17,2.17,0,*77
1528945368.13,58574,19.25,73398.3,2.71,2.13,2.13,0,*72
1528945369.37,58575,19.25,73400.3,2.71,2.17,2.17,0,*73
1528945370.6,58576,19.25,73396.3,2.71,2.13,2.13,0,*70
1528945371.84,58577,19.19,73394.3,2.71,2.17,2.17,0,*71
1528945373.11,58578,19.25,73394.8,2.73,2.17,2.17,0,*7C
1528945374.34,58579,19.19,73392.5,2.71,2.05,2.01,0,*7B
1528945375.6,58580,19.25,73412.0,2.73,2.05,2.05,0,*7B
1528945376.83,58581,19.19,73416.3,2.71,2.13,2.05,0,*7F
1528945378.06,58582,19.25,73394.0,2.71,2.01,2.01,0,*7B
1528945379.28,58583,19.25,73386.8,2.71,2.01,1.97,0,*76
1528945380.51,58584,19.25,73380.8,2.71,2.01,1.97,0,*71
1528945381.76,58585,19.25,73382.5,2.69,1.97,1.93,0,*71
1528945383.01,58586,19.19,73396.8,2.69,1.97,1.93,0,*72
1528945384.24,58587,19.25,73404.0,2.71,2.01,2.01,0,*7E
1528945385.5,58588,19.19,73408.5,2.73,2.01,2.01,0,*73
1528945386.73,58589,19.19,73418.8,2.71,2.01,2.05,0,*74
1528945387.96,58590,19.19,73414.5,2.71,2.05,2.05,0,*78
1528945389.21,58591,19.25,73418.0,2.69,2.01,2.01,0,*70
1528945390.47,58592,19.19,73420.5,2.69,2.01,2.01,0,*73
1528945391.7,58593,19.25,73420.3,2.71,2.13,2.13,0,*7B
1528945392.94,58594,19.25,73424.8,2.71,2.17,2.13,0,*78
1528945394.17,58595,19.25,73416.3,2.71,2.13,2.17,0,*79
1528945395.44,58596,19.25,73412.5,2.73,2.13,2.17,0,*78
1528945396.69,58597,19.25,73412.0,2.69,2.21,2.25,0,*72
1528945397.92,58598,19.19,73410.0,2.71,2.25,2.17,0,*71
1528945399.16,58599,19.25,73412.5,2.71,2.17,2.17,0,*71
1528945400.42,58600,19.19,73412.3,2.73,2.13,2.13,0,*70
1528945401.68,58601,19.25,73406.3,2.73,2.13,2.13,0,*71
1528945402.91,58602,19.19,73402.0,2.71,2.13,2.05,0,*77
1528945404.14,58603,19.25,73410.0,2.71,2.05,2.05,0,*71
1528945405.37,58604,19.25,73404.5,2.71,2.01,2.01,0,*76
1528945406.6,58605,19.19,73402.8,2.71,2.05,2.05,0,*77
1528945407.83,58606,19.25,73394.3,2.71,2.01,2.05,0,*70
1528945409.05,58607,19.25,73400.3,2.71,2.01,2.01,0,*75
1528945410.28,58608,19.25,73402.0,2.71,2.05,2.05,0,*7A
1528945411.51,58609,19.19,73390.5,2.71,2.01,2.05,0,*7F
1528945412.76,58610,19.25,73392.3,2.69,2.01,1.97,0,*76
1528945414.02,58611,19.25,73402.8,2.69,2.01,1.97,0,*77
1528945415.27,58612,19.19,73402.0,2.69,1.97,1.97,0,*78
1528945416.53,58613,19.19,73400.5,2.69,1.97,1.97,0,*79
1528945417.78,58614,19.19,73406.8,2.69,1.85,1.93,0,*79
1528945419.03,58615,19.25,73402.3,2.69,1.93,1.93,0,*7F
1528945420.29,58616,19.19,73392.3,2.69,1.97,1.93,0,*78
1528945421.54,58617,19.25,73396.0,2.69,1.97,2.01,0,*71
1528945422.8,58618,19.25,73394.0,2.69,1.97,2.01,0,*7E
1528945424.06,58619,19.25,73406.3,2.69,2.01,2.01,0,*73
1528945425.31,58620,19.19,73400.8,2.69,2.01,2.01,0,*79
1528945426.57,58621,19.19,73406.3,2.69,1.97,1.97,0,*78
1528945427.8,58622,19.19,73402.5,2.71,2.05,2.01,0,*76
1528945429.02,58623,19.19,73398.8,2.71,2.01,2.01,0,*73
1528945430.28,58624,19.25,73410.0,2.69,1.93,1.97,0,*79
1528945431.53,58625,19.19,73414.8,2.69,2.01,1.97,0,*70
1528945432.79,58626,19.25,73412.0,2.69,2.01,2.09,0,*77
1528945434.04,58627,19.19,73414.0,2.69,2.09,2.01,0,*76
1528945435.3,58628,19.25,73420.5,2.69,1.97,2.01,0,*7D
1528945436.55,58629,19.25,73420.0,2.69,2.09,2.01,0,*78
1528945437.81,58630,19.19,73406.0,2.69,1.97,2.01,0,*74
1528945439.06,58631,19.19,73404.5,2.69,1.97,1.97,0,*79
1528945440.32,58632,19.19,73398.5,2.69,1.97,1.97,0,*7A
1528945441.57,58633,19.19,73396.8,2.69,2.01,2.01,0,*7B
1528945442.83,58634,19.19,73396.8,2.69,1.97,1.97,0,*7C
1528945444.09,58635,19.25,73406.0,2.69,1.97,2.01,0,*71
1528945445.34,58636,19.19,73406.0,2.67,2.01,2.01,0,*70
1528945446.59,58637,19.25,73406.0,2.67,1.97,1.97,0,*71
1528945447.84,58638,19.25,73406.8,2.67,1.93,1.97,0,*7A
1528945449.09,58639,19.25,73400.3,2.69,1.97,1.97,0,*71
1528945450.35,58640,19.19,73394.8,2.69,1.85,1.85,0,*7F
1528945451.6,58641,19.19,73390.5,2.69,1.93,1.93,0,*7E
1528945452.85,58642,19.19,73392.8,2.67,1.93,1.97,0,*77
1528945454.11,58643,19.25,73398.5,2.69,1.97,1.97,0,*7C
1528945455.36,58644,19.25,73392.5,2.67,1.97,2.01,0,*79
1528945456.61,58645,19.25,73394.5,2.69,2.01,1.97,0,*76
1528945457.86,58646,19.19,73394.3,2.67,1.97,1.97,0,*77
1528945459.12,58647,19.19,73396.8,2.69,1.97,1.97,0,*78
1528945460.37,58648,19.19,73400.3,2.67,1.97,1.97,0,*79
1528945461.62,58649,19.25,73410.8,2.69,1.97,1.97,0,*76
1528945462.87,58650,19.25,73414.3,2.67,1.97,1.97,0,*70
1528945464.12,58651,19.19,73400.5,2.67,1.85,1.93,0,*76
1528945465.37,58652,19.19,73410.8,2.67,1.93,1.93,0,*72
1528945466.62,58653,19.19,73400.5,2.67,1.93,1.93,0,*73
1528945467.87,58654,19.19,73394.3,2.67,1.97,1.93,0,*70
1528945469.12,58655,19.25,73390.3,2.67,1.93,1.85,0,*72
1528945470.37,58656,19.25,73396.8,2.67,1.85,1.93,0,*71
1528945471.62,58657,19.25,73406.5,2.67,2.01,1.97,0,*7B
1528945472.87,58658,19.25,73404.5,2.67,2.09,2.01,0,*70
1528945474.12,58659,19.25,73400.3,2.67,1.97,1.97,0,*79
1528945475.37,58660,19.19,73402.0,2.67,1.97,1.97,0,*73
1528945476.62,58661,19.25,73398.0,2.67,1.97,1.97,0,*72
1528945477.87,58662,19.19,73382.5,2.67,1.85,1.93,0,*76
1528945479.12,58663,19.25,73400.3,2.67,1.93,1.93,0,*70
1528945480.37,58664,19.19,73408.8,2.67,2.01,1.97,0,*7B
1528945481.59,58665,19.25,73396.8,2.65,1.93,1.93,0,*74
1528945482.82,58666,19.19,73406.5,2.65,1.93,1.93,0,*77
1528945484.05,58667,19.25,73404.0,2.65,1.97,1.97,0,*76
1528945485.27,58668,19.19,73402.0,2.65,1.97,1.97,0,*79
1528945486.52,58669,19.25,73406.8,2.63,1.93,1.93,0,*7E
1528945487.77,58670,19.19,73406.3,2.67,2.01,2.09,0,*7A
1528945489.02,58671,19.19,73402.5,2.67,2.01,2.09,0,*7B
1528945490.25,58672,19.19,73404.8,2.65,1.97,1.97,0,*72
1528945491.47,58673,19.19,73406.0,2.65,2.05,1.97,0,*7B
1528945492.7,58674,19.19,73408.3,2.65,2.05,2.05,0,*74
1528945493.93,58675,19.19,73404.5,2.65,2.05,2.05,0,*75
1528945495.18,58676,19.19,73416.8,2.67,1.97,2.09,0,*70
1528945496.41,58677,19.19,73412.0,2.65,2.05,2.09,0,*7B
1528945497.66,58678,19.19,73406.8,2.67,2.09,2.09,0,*7A
1528945498.91,58679,19.19,73404.8,2.67,1.97,1.97,0,*7B
1528945500.16,58680,19.19,73412.0,2.67,1.97,1.97,0,*7D
1528945501.42,58681,19.19,73412.3,2.67,2.01,2.09,0,*74
1528945502.67,58682,19.19,73408.0,2.67,2.09,2.09,0,*7F
1528945503.92,58683,19.19,73412.3,2.67,2.01,2.09,0,*76
1528945505.18,58684,19.19,73408.5,2.67,2.13,2.13,0,*79
1528945506.43,58685,19.19,73404.8,2.67,2.09,2.09,0,*78
1528945507.66,58686,19.19,73402.5,2.65,1.97,1.97,0,*79
1528945508.91,58687,19.19,73402.0,2.67,2.09,2.09,0,*7A
1528945510.16,58688,19.19,73408.3,2.67,2.13,2.09,0,*7E
1528945511.41,58689,19.19,73410.8,2.67,2.13,2.13,0,*74
1528945512.67,58690,19.19,73408.3,2.67,2.13,2.09,0,*77
1528945513.92,58691,19.19,73418.3,2.67,2.13,2.13,0,*7D
1528945515.18,58692,19.19,73408.3,2.69,2.09,2.09,0,*70
1528945516.43,58693,19.19,73404.0,2.67,2.09,2.13,0,*74
1528945517.69,58694,19.19,73410.8,2.67,2.13,2.13,0,*78
1528945518.94,58695,19.19,73426.3,2.67,2.13,2.13,0,*79
1528945520.19,58696,19.19,73424.3,2.67,2.13,2.09,0,*71
1528945521.45,58697,19.19,73416.3,2.69,2.09,2.09,0,*75
1528945522.7,58698,19.19,73416.3,2.67,2.13,2.13,0,*74
1528945523.96,58699,19.19,73416.8,2.69,2.21,2.13,0,*7A
1528945525.21,58700,19.19,73418.8,2.67,2.13,2.13,0,*74
1528945526.47,58701,19.19,73420.0,2.67,2.13,2.13,0,*75
1528945527.71,58702,19.19,73416.3,2.67,2.21,2.25,0,*72
1528945528.96,58703,19.19,73418.5,2.67,2.21,2.21,0,*77
1528945530.2,58704,19.19,73418.8,2.67,2.21,2.21,0,*70
1528945531.46,58705,19.19,73420.3,2.69,2.21,2.13,0,*7E
1528945532.7,58706,19.25,73428.5,2.69,2.21,2.21,0,*7C
1528945533.96,58707,19.19,73424.3,2.69,2.21,2.25,0,*79
1528945535.2,58708,19.19,73418.3,2.69,2.21,2.21,0,*72
1528945536.46,58709,19.19,73420.5,2.69,2.25,2.21,0,*77
1528945537.71,58710,19.19,73426.8,2.69,2.21,2.25,0,*7F
1528945538.96,58711,19.19,73422.8,2.69,2.25,2.25,0,*7A
1528945540.21,58712,19.19,73416.8,2.69,2.21,2.25,0,*7D
1528945541.46,58713,19.19,73416.3,2.69,2.21,2.21,0,*78
1528945542.68,58714,19.19,73414.8,2.67,2.25,2.31,0,*74
1528945543.93,58715,19.19,73410.0,2.69,2.21,2.21,0,*7E
1528945545.18,58716,19.19,73406.5,2.69,2.25,2.21,0,*79
1528945546.44,58717,19.25,73408.3,2.69,2.25,2.25,0,*7C
1528945547.69,58718,19.19,73408.5,2.69,2.25,2.25,0,*73
1528945548.94,58719,19.19,73414.3,2.69,2.25,2.25,0,*72
1528945550.2,58720,19.19,73410.0,2.69,2.25,2.25,0,*78
1528945551.45,58721,19.19,73410.3,2.69,2.21,2.25,0,*7D
1528945552.7,58722,19.19,73410.5,2.69,2.21,2.25,0,*7E
1528945553.95,58723,19.19,73422.0,2.69,2.25,2.21,0,*7F
1528945555.2,58724,19.19,73416.3,2.69,2.21,2.21,0,*7C
1528945556.43,58725,19.19,73412.5,2.71,2.13,2.05,0,*73
1528945557.69,58726,19.19,73408.3,2.69,2.09,2.09,0,*7E
1528945558.94,58727,19.19,73408.5,2.69,2.13,2.09,0,*74
1528945560.2,58728,19.19,73412.8,2.69,2.09,2.13,0,*7B
1528945561.44,58729,19.19,73412.8,2.71,2.17,2.17,0,*78
1528945562.67,58730,19.25,73414.3,2.71,2.17,2.25,0,*71
1528945563.91,58731,19.19,73412.5,2.71,2.17,2.25,0,*70
1528945565.15,58732,19.25,73410.0,2.71,2.17,2.17,0,*72
1528945566.4,58733,19.19,73412.0,2.69,2.09,2.09,0,*7A
1528945567.66,58734,19.25,73414.8,2.69,2.13,2.13,0,*7D
1528945568.92,58735,19.19,73412.3,2.69,2.13,2.13,0,*7C
1528945570.16,58736,19.19,73422.5,2.71,2.17,2.25,0,*77
1528945571.39,58737,19.19,73414.3,2.71,2.17,2.17,0,*77
1528945572.66,58738,19.19,73408.0,2.73,2.17,2.25,0,*7B
1528945573.9,58739,19.19,73418.3,2.71,2.17,2.13,0,*7D
1528945575.13,58740,19.19,73418.8,2.71,2.13,2.13,0,*77
1528945576.37,58741,19.19,73420.0,2.71,2.17,2.13,0,*72
1528945577.6,58742,19.19,73400.5,2.71,2.01,2.01,0,*75
1528945578.82,58743,19.19,73408.3,2.71,2.05,2.05,0,*74
1528945580.06,58744,19.19,73408.8,2.71,2.13,2.13,0,*73
1528945581.29,58745,19.25,73408.8,2.71,2.13,2.13,0,*72
1528945582.55,58746,19.19,73402.3,2.69,2.09,2.09,0,*78
1528945583.8,58747,19.19,73414.3,2.69,2.13,2.13,0,*79
1528945585.06,58748,19.19,73416.3,2.69,2.13,2.21,0,*77
1528945586.28,58749,19.19,73418.8,2.71,2.25,2.25,0,*7E
1528945587.51,58750,19.19,73408.0,2.71,2.25,2.25,0,*76
1528945588.71,58751,19.19,73404.8,2.71,2.25,2.27,0,*75
1528945589.89,58752,19.19,73422.5,2.71,2.27,2.27,0,*74
1528945591.07,58753,19.25,73414.3,2.71,2.27,2.27,0,*75
1528945592.31,58754,19.19,73406.0,2.71,2.17,2.13,0,*76
1528945593.55,58755,19.19,73414.5,2.71,2.17,2.17,0,*73
1528945594.78,58756,19.19,73410.8,2.71,2.17,2.17,0,*70
1528945596.01,58757,19.19,73416.8,2.71,2.25,2.25,0,*71
1528945597.24,58758,19.19,73416.3,2.71,2.13,2.17,0,*7A
1528945598.48,58759,19.19,73416.5,2.71,2.17,2.17,0,*7F
1528945599.72,58760,19.19,73418.3,2.71,2.17,2.17,0,*75
1528945600.95,58761,19.19,73414.8,2.71,2.25,2.17,0,*75
1528945602.16,58762,19.19,73404.0,2.71,2.27,2.25,0,*75
1528945603.42,58763,19.19,73410.3,2.73,2.25,2.25,0,*74
1528945604.62,58764,19.19,73410.5,2.71,2.25,2.27,0,*73
1528945605.79,58765,19.19,73414.0,2.71,2.27,2.27,0,*70
1528945607.0,58766,19.25,73418.0,2.73,2.27,2.27,0,*71
1528945608.2,58767,19.19,73410.5,2.71,2.25,2.27,0,*70
1528945609.46,58768,19.19,73422.0,2.73,2.25,2.25,0,*7F
1528945610.7,58769,19.19,73420.0,2.71,2.17,2.25,0,*7D
1528945611.95,58770,19.19,73418.3,2.73,2.25,2.25,0,*76
1528945613.22,58771,19.19,73416.3,2.73,2.17,2.25,0,*76
1528945614.48,58772,19.19,73418.3,2.73,2.25,2.25,0,*74
1528945615.74,58773,19.19,73420.0,2.73,2.17,2.17,0,*75
1528945617.01,58774,19.19,73422.0,2.73,2.17,2.25,0,*73
1528945618.27,58775,19.19,73418.0,2.73,2.17,2.25,0,*72
1528945619.54,58776,19.19,73406.5,2.73,2.17,2.17,0,*70
1528945620.81,58777,19.19,73406.8,2.73,2.17,2.17,0,*71
1528945622.04,58778,19.19,73412.0,2.71,2.25,2.25,0,*7C
1528945623.24,58779,19.19,73412.3,2.71,2.25,2.27,0,*7F
1528945624.5,58780,19.19,73418.5,2.73,2.25,2.25,0,*79
1528945625.76,58781,19.19,73412.0,2.73,2.25,2.25,0,*78
1528945627.02,58782,19.19,73410.5,2.73,2.17,2.25,0,*7A
1528945628.29,58783,19.19,73416.8,2.73,2.17,2.17,0,*7A
1528945629.52,58784,19.19,73426.3,2.71,2.17,2.25,0,*7E
1528945630.73,58785,19.19,73416.3,2.73,2.27,2.27,0,*7C
1528945631.99,58786,19.19,73420.8,2.73,2.25,2.25,0,*7F
1528945633.22,58787,19.19,73414.5,2.73,2.27,2.25,0,*7C
1528945634.49,58788,19.25,73418.5,2.73,2.13,2.13,0,*71
1528945635.75,58789,19.19,73412.3,2.73,2.25,2.17,0,*71
1528945637.02,58790,19.19,73410.5,2.73,2.17,2.17,0,*78
1528945638.28,58791,19.19,73404.3,2.73,2.25,2.25,0,*79
1528945639.51,58792,19.19,73402.8,2.71,2.17,2.25,0,*79
1528945640.77,58793,19.19,73416.3,2.73,2.13,2.13,0,*7B
1528945642.0,58794,19.19,73406.8,2.71,2.13,2.25,0,*7B
1528945643.24,58795,19.19,73400.5,2.71,2.17,2.13,0,*7B
1528945644.47,58796,19.19,73408.3,2.71,2.05,2.13,0,*7B
1528945645.73,58797,19.19,73404.0,2.73,2.05,2.13,0,*78
1528945646.99,58798,19.19,73402.5,2.73,2.13,2.13,0,*70
1528945648.26,58799,19.19,73408.5,2.73,2.13,2.13,0,*71
1528945649.51,58800,19.19,73416.3,2.73,2.25,2.25,0,*7E
1528945650.77,58801,19.19,73406.0,2.73,2.25,2.25,0,*7F
1528945652.04,58802,19.19,73404.3,2.73,2.17,2.17,0,*7C
1528945653.3,58803,19.19,73416.8,2.73,2.13,2.05,0,*7A
1528945654.56,58804,19.19,73418.5,2.73,2.05,2.05,0,*7A
1528945655.79,58805,19.25,73418.0,2.71,2.13,2.13,0,*79
1528945657.06,58806,19.19,73418.0,2.73,2.17,2.17,0,*78
1528945658.32,58807,19.19,73408.8,2.73,2.13,2.13,0,*79
1528945659.58,58808,19.19,73410.0,2.73,2.13,2.05,0,*71
1528945660.82,58809,19.19,73412.3,2.71,2.17,2.17,0,*75
1528945662.09,58810,19.19,73416.0,2.73,2.17,2.17,0,*7F
1528945663.35,58811,19.19,73416.8,2.73,2.17,2.17,0,*7E
1528945664.62,58812,19.19,73416.8,2.73,2.17,2.17,0,*7D
1528945665.89,58813,19.19,73414.5,2.73,2.17,2.17,0,*7C
1528945667.15,58814,19.19,73424.8,2.73,2.13,2.13,0,*7B
1528945668.42,58815,19.19,73416.5,2.73,2.25,2.17,0,*7B
1528945669.68,58816,19.19,73416.5,2.73,2.17,2.17,0,*79
1528945670.92,58817,19.19,73414.0,2.71,2.17,2.25,0,*7B
1528945672.15,58818,19.19,73418.0,2.71,2.25,2.25,0,*75
1528945673.4,58819,19.19,73420.0,2.73,2.25,2.25,0,*76
1528945674.67,58820,19.19,73412.8,2.73,2.17,2.25,0,*7D
1528945675.9,58821,19.19,73420.0,2.73,2.25,2.27,0,*7F
1528945677.16,58822,19.19,73426.3,2.73,2.25,2.25,0,*7E
1528945678.37,58823,19.19,73414.8,2.73,2.27,2.27,0,*7F
1528945679.57,58824,19.19,73410.5,2.73,2.27,2.27,0,*78
1528945680.84,58825,19.19,73416.5,2.73,2.25,2.17,0,*78
1528945682.07,58826,19.19,73412.0,2.73,2.25,2.27,0,*78
1528945683.32,58827,19.19,73410.0,2.73,2.25,2.25,0,*7B
1528945684.59,58828,19.19,73406.5,2.73,2.17,2.17,0,*74
1528945685.86,58829,19.19,73414.5,2.73,2.13,2.13,0,*75
1528945687.12,58830,19.19,73418.0,2.73,2.13,2.13,0,*7D
1528945688.38,58831,19.19,73412.5,2.73,2.13,2.05,0,*7B
1528945689.64,58832,19.19,73412.0,2.73,2.13,2.13,0,*7F
1528945690.9,58833,19.19,73412.8,2.73,2.13,2.17,0,*7A
1528945692.16,58834,19.19,73420.8,2.73,2.13,2.13,0,*79
1528945693.43,58835,19.19,73414.5,2.73,2.05,2.17,0,*7B
1528945694.69,58836,19.19,73418.0,2.73,2.13,2.17,0,*7F
1528945695.95,58837,19.19,73420.3,2.73,2.05,2.13,0,*7D
1528945697.21,58838,19.19,73420.5,2.73,2.05,2.17,0,*76
1528945698.47,58839,19.19,73426.3,2.73,2.13,2.13,0,*74
1528945699.73,58840,19.19,73416.0,2.73,2.13,2.01,0,*79
1528945700.99,58841,19.19,73414.5,2.73,2.05,2.05,0,*7B
1528945702.25,58842,19.19,73414.0,2.73,2.05,2.13,0,*7F
1528945703.51,58843,19.19,73422.8,2.73,2.13,2.13,0,*79
1528945704.78,58844,19.19,73418.3,2.73,2.13,2.13,0,*7E
1528945706.05,58845,19.19,73416.0,2.73,2.17,2.17,0,*7F
1528945707.28,58846,19.19,73418.0,2.71,2.13,2.17,0,*7A
1528945708.54,58847,19.19,73424.5,2.73,2.13,2.17,0,*79
1528945709.75,58848,19.19,73426.8,2.71,2.27,2.25,0,*72
1528945711.0,58849,19.19,73420.0,2.73,2.25,2.25,0,*73
1528945712.21,58850,19.19,73414.8,2.71,2.27,2.25,0,*7B
1528945713.47,58851,19.19,73422.3,2.73,2.25,2.25,0,*7A
1528945714.72,58852,19.19,73418.5,2.73,2.25,2.25,0,*79
1528945715.99,58853,19.19,73420.0,2.73,2.17,2.25,0,*79
1528945717.22,58854,19.19,73420.8,2.71,2.13,2.13,0,*7D
1528945718.48,58855,19.19,73426.8,2.73,2.13,2.05,0,*79
1528945719.74,58856,19.19,73424.0,2.73,2.13,2.05,0,*7A
1528945721.0,58857,19.19,73420.0,2.73,2.01,2.01,0,*7C
1528945722.23,58858,19.19,73418.8,2.71,2.01,2.01,0,*71
1528945723.45,58859,19.19,73416.5,2.71,2.05,2.01,0,*74
1528945724.71,58860,19.19,73414.8,2.73,2.05,2.01,0,*7C
1528945725.97,58861,19.19,73418.5,2.73,2.05,2.05,0,*79
1528945727.2,58862,19.19,73414.8,2.71,2.13,2.05,0,*7F
1528945728.43,58863,19.19,73414.8,2.71,2.13,2.13,0,*79
1528945729.67,58864,19.19,73408.5,2.71,2.17,2.17,0,*7E
1528945730.94,58865,19.19,73406.5,2.73,2.17,2.13,0,*79
1528945732.21,58866,19.19,73412.0,2.73,2.17,2.17,0,*7E
1528945733.48,58867,19.19,73412.0,2.73,2.17,2.17,0,*7F
1528945734.74,58868,19.19,73408.5,2.73,2.13,2.17,0,*74
1528945736.0,58869,19.19,73408.3,2.73,2.13,2.13,0,*71
1528945737.26,58870,19.19,73408.8,2.73,2.13,2.17,0,*7D
1528945738.52,58871,19.19,73408.8,2.73,2.13,2.01,0,*7B
1528945739.75,58872,19.19,73412.3,2.71,2.01,2.01,0,*79
1528945741.01,58873,19.19,73414.5,2.73,2.01,2.01,0,*7A
1528945742.27,58874,19.19,73406.5,2.73,2.05,2.05,0,*7D
1528945743.49,58875,19.19,73406.3,2.71,2.05,2.05,0,*7E